Current Weather Conditions: station 63056

sailwx.info

Wind from 210 at 20 knots

Wave height 2.6 meters (8 feet), 7 second period

Air temperature 7.2° C
Visibility: greater than 10.8 NM
Dewpoint 6.0° C

Last reported at 2020-Jan-26 01:00 UTC.
Time now 2020-Jan-26 02:51 UTC

Location: N 59°42' E 001°36'.
View on Google Maps.

See reports from other nearby stations

  
Tides and Currents Weather Stations Pressure Air Temp Water Temp Dewpoint Dewpoint Depression Visibility Wind Speed Wind Dir Waves Ship Positions
date/time (UTC)wind fromknots sea level pressurealtimeterstation pressurevisibilityair tempwater tempwave heightnotes
2020-Jan-26 01:00 210 20 10.8 7.2 2.6
2020-Jan-26 00:00 200 18 5.4 7.4 2.6
2020-Jan-25 23:00 200 17 5.4 7.5 2.6
2020-Jan-25 22:00 210 20 5.4 7.4 2.6
2020-Jan-25 21:00 210 18 5.4 7.5 2.7
2020-Jan-25 20:00 210 24 5.4 7.6 2.8
2020-Jan-25 19:00 220 18 10.8 7.7 2.7
2020-Jan-25 18:00 220 19 10.8 7.6 2.6
2020-Jan-25 17:00 220 19 5.4 7.6 2.2
2020-Jan-25 16:00 220 20 5.4 7.6 2.2
2020-Jan-25 15:00 220 20 10.8 7.7 2.4
2020-Jan-25 14:00 220 20 10.8 7.8 2.4
2020-Jan-25 13:00 210 20 5.4 7.8 2.5
2020-Jan-25 12:00 210 21 5.4 7.8 2.5
2020-Jan-25 11:00 210 24 10.8 7.8 2.3
2020-Jan-25 10:00 210 20 10.8 7.7 2.4
2020-Jan-25 09:00 210 21 10.8 7.7 2.4
2020-Jan-25 08:00 210 21 10.8 7.7 2.6
2020-Jan-25 07:00 210 24 10.8 7.6 2.6
2020-Jan-25 06:00 210 25 10.8 7.6 2.4
2020-Jan-25 05:00 210 21 10.8 7.6 2.6
2020-Jan-25 04:00 210 20 10.8 7.5 2.6
2020-Jan-25 03:00 220 19 10.8 7.3 2.8
2020-Jan-25 02:00 230 18 10.8 7.2 2.8
2020-Jan-25 01:00 230 14 10.8 7.2 2.8
2020-Jan-25 00:00 240 12 10.8 6.8 3.0
2020-Jan-24 23:00 250 17 10.8 6.7 2.8
2020-Jan-24 22:00 290 13 10.8 6.2 2.9
2020-Jan-24 21:00 260 15 10.8 6.7 2.8
2020-Jan-24 20:00 270 14 10.8 6.5 3.1
2020-Jan-24 19:00 280 15 10.8 6.3 3.2
2020-Jan-24 18:00 280 17 10.8 6.0 3.3
2020-Jan-24 17:00 290 14 10.8 6.2 3.4
2020-Jan-24 16:00 270 14 10.8 5.9 3.3
2020-Jan-24 15:00 290 21 10.8 6.1 3.5
2020-Jan-24 14:00 280 19 10.8 6.4 3.4
2020-Jan-24 13:00 280 20 10.8 6.2 3.4
2020-Jan-24 12:00 290 20 10.8 6.3 3.3
2020-Jan-24 11:00 280 21 10.8 6.6 3.2
2020-Jan-24 10:00 290 22 10.8 6.3 3.2
2020-Jan-24 09:00 270 20 10.8 6.5 3.4
2020-Jan-24 08:00 280 21 10.8 6.8 3.3
2020-Jan-24 07:00 290 19 10.8 6.7 3.2
2020-Jan-24 06:00 280 24 10.8 6.6 3.1
2020-Jan-24 05:00 280 24 10.8 5.9 3.1
2020-Jan-24 04:00 280 22 10.8 6.9 2.9
2020-Jan-24 03:00 270 21 10.8 6.6 2.9
2020-Jan-24 02:00 280 21 10.8 6.6 3.0